Time,TemperatureF,DewpointF,PressureIn,WindDirection,WindDirectionDegrees,WindSpeedMPH,WindSpeedGustMPH,Humidity,HourlyPrecipIn,Conditions,Clouds,dailyrainin,SoftwareType,DateUTC
2013-03-08 00:02:00,26.0,23.0,30.40,NNE,26,0.0,0.0,90,0.00,,,0.37,,2013-03-08 05:02:00,
2013-03-08 00:12:00,26.0,23.0,30.40,NNE,26,0.0,0.0,90,0.00,,,0.37,,2013-03-08 05:12:00,
2013-03-08 00:22:00,25.0,23.0,30.40,NNE,25,0.0,0.0,91,0.00,,,0.37,,2013-03-08 05:22:00,
2013-03-08 00:32:00,25.0,23.0,30.40,NNE,25,0.0,0.0,91,0.00,,,0.37,,2013-03-08 05:32:00,
2013-03-08 00:42:00,25.0,23.0,30.40,NNE,25,0.0,0.0,91,0.00,,,0.37,,2013-03-08 05:42:00,
2013-03-08 00:52:00,24.0,22.0,30.40,NNE,26,0.0,0.0,91,0.00,,,0.37,,2013-03-08 05:52:00,
2013-03-08 01:01:00,24.0,22.0,30.40,NNE,25,0.0,0.0,92,0.00,,,0.37,,2013-03-08 06:01:00,
2013-03-08 01:11:00,24.0,22.0,30.40,NNE,25,0.0,0.0,92,0.00,,,0.37,,2013-03-08 06:11:00,
2013-03-08 01:21:00,24.0,22.0,30.41,NNE,26,0.0,0.0,92,0.00,,,0.37,,2013-03-08 06:21:00,
2013-03-08 01:32:00,23.0,21.0,30.41,NNE,25,0.0,0.0,92,0.00,,,0.37,,2013-03-08 06:32:00,
2013-03-08 01:42:00,23.0,21.0,30.41,NNE,25,0.0,0.0,92,0.00,,,0.37,,2013-03-08 06:42:00,
2013-03-08 01:52:00,23.0,21.0,30.41,NNE,26,0.0,0.0,92,0.00,,,0.37,,2013-03-08 06:52:00,
2013-03-08 02:01:00,22.0,20.0,30.42,NNE,26,0.0,0.0,92,0.00,,,0.37,,2013-03-08 07:01:00,
2013-03-08 02:11:00,22.0,20.0,30.42,NNE,26,0.0,0.0,92,0.00,,,0.37,,2013-03-08 07:11:00,
2013-03-08 02:22:00,22.0,20.0,30.41,NNE,26,0.0,0.0,92,0.00,,,0.37,,2013-03-08 07:22:00,
2013-03-08 02:31:00,22.0,20.0,30.41,NNE,26,0.0,0.0,93,0.00,,,0.37,,2013-03-08 07:31:00,
2013-03-08 02:42:00,22.0,20.0,30.41,NNE,26,0.0,0.0,93,0.00,,,0.37,,2013-03-08 07:42:00,
2013-03-08 02:52:00,22.0,20.0,30.42,NNE,25,0.0,0.0,93,0.00,,,0.37,,2013-03-08 07:52:00,
2013-03-08 03:01:00,22.0,20.0,30.42,NNE,26,0.0,0.0,93,0.00,,,0.37,,2013-03-08 08:01:00,
2013-03-08 03:11:00,22.0,20.0,30.42,NNE,26,0.0,0.0,93,0.00,,,0.37,,2013-03-08 08:11:00,
2013-03-08 03:21:00,22.0,20.0,30.42,NNE,25,0.0,0.0,93,0.00,,,0.37,,2013-03-08 08:21:00,
2013-03-08 03:31:00,22.0,20.0,30.43,NNE,26,0.0,0.0,93,0.00,,,0.37,,2013-03-08 08:31:00,
2013-03-08 03:41:00,22.0,20.0,30.43,NNE,26,0.0,0.0,93,0.00,,,0.37,,2013-03-08 08:41:00,
2013-03-08 03:52:00,22.0,20.0,30.42,NNE,25,0.0,0.0,93,0.00,,,0.37,,2013-03-08 08:52:00,
2013-03-08 04:03:00,21.0,19.0,30.42,NNE,26,0.0,0.0,93,0.00,,,0.37,,2013-03-08 09:03:00,
2013-03-08 04:11:00,21.0,19.0,30.42,NNE,26,0.0,0.0,93,0.00,,,0.37,,2013-03-08 09:11:00,
2013-03-08 04:21:00,21.0,19.0,30.42,NNE,26,0.0,0.0,93,0.00,,,0.37,,2013-03-08 09:21:00,
2013-03-08 04:32:00,21.0,19.0,30.43,NNE,25,0.0,0.0,93,0.00,,,0.37,,2013-03-08 09:32:00,
2013-03-08 04:42:00,21.0,19.0,30.43,NNE,25,0.0,0.0,93,0.00,,,0.37,,2013-03-08 09:42:00,
2013-03-08 04:52:00,20.0,18.0,30.43,NNE,25,0.0,0.0,93,0.00,,,0.37,,2013-03-08 09:52:00,
2013-03-08 05:01:00,20.0,18.0,30.43,NNE,26,0.0,0.0,93,0.00,,,0.37,,2013-03-08 10:01:00,
2013-03-08 05:11:00,20.0,18.0,30.43,NNE,26,0.0,0.0,93,0.00,,,0.37,,2013-03-08 10:11:00,
2013-03-08 05:21:00,20.0,18.0,30.42,NNE,26,0.0,0.0,93,0.00,,,0.37,,2013-03-08 10:21:00,
2013-03-08 05:31:00,20.0,18.0,30.42,NNE,26,0.0,0.0,93,0.00,,,0.37,,2013-03-08 10:31:00,
2013-03-08 05:41:00,20.0,18.0,30.42,NNE,26,0.0,0.0,93,0.00,,,0.37,,2013-03-08 10:41:00,
2013-03-08 05:52:00,20.0,18.0,30.43,NNE,26,0.0,0.0,93,0.00,,,0.37,,2013-03-08 10:52:00,
2013-03-08 06:01:00,20.0,18.0,30.44,NNE,26,0.0,0.0,93,0.00,,,0.37,,2013-03-08 11:01:00,
2013-03-08 06:11:00,20.0,18.0,30.44,NNE,26,0.0,0.0,93,0.00,,,0.37,,2013-03-08 11:11:00,
2013-03-08 06:21:00,19.0,17.0,30.45,NNE,26,0.0,0.0,93,0.00,,,0.37,,2013-03-08 11:21:00,
2013-03-08 06:32:00,19.0,17.0,30.45,NNE,26,0.0,0.0,93,0.00,,,0.37,,2013-03-08 11:32:00,
2013-03-08 06:42:00,19.0,17.0,30.45,NNE,26,0.0,0.0,93,0.00,,,0.37,,2013-03-08 11:42:00,
2013-03-08 06:52:00,19.0,17.0,30.44,NNE,25,0.0,0.0,93,0.00,,,0.37,,2013-03-08 11:52:00,
2013-03-08 07:01:00,19.0,17.0,30.45,NNE,25,0.0,0.0,93,0.00,,,0.37,,2013-03-08 12:01:00,
2013-03-08 07:11:00,19.0,17.0,30.45,NNE,25,0.0,0.0,93,0.00,,,0.37,,2013-03-08 12:11:00,
2013-03-08 07:22:00,19.0,17.0,30.45,NNE,25,0.0,0.0,93,0.00,,,0.37,,2013-03-08 12:22:00,
2013-03-08 07:32:00,19.0,17.0,30.45,NNE,26,0.0,0.0,93,0.00,,,0.37,,2013-03-08 12:32:00,
2013-03-08 07:43:00,19.0,17.0,30.45,NNE,26,0.0,0.0,93,0.00,,,0.37,,2013-03-08 12:43:00,
2013-03-08 07:53:00,19.0,17.0,30.45,NNE,26,0.0,0.0,93,0.00,,,0.37,,2013-03-08 12:53:00,
2013-03-08 08:01:00,19.0,17.0,30.45,NNE,26,0.0,0.0,93,0.00,,,0.37,,2013-03-08 13:01:00,
2013-03-08 08:11:00,19.0,17.0,30.45,NNE,26,0.0,0.0,93,0.00,,,0.37,,2013-03-08 13:11:00,
2013-03-08 08:21:00,19.0,18.0,30.45,NNE,25,0.0,0.0,94,0.00,,,0.37,,2013-03-08 13:21:00,
2013-03-08 08:32:00,20.0,19.0,30.46,NNE,26,0.0,0.0,94,0.00,,,0.37,,2013-03-08 13:32:00,
2013-03-08 08:42:00,20.0,19.0,30.46,NNE,26,0.0,0.0,94,0.00,,,0.37,,2013-03-08 13:42:00,
2013-03-08 08:52:00,23.0,22.0,30.46,NNE,26,0.0,2.0,95,0.00,,,0.37,,2013-03-08 13:52:00,
2013-03-08 09:02:00,25.0,24.0,30.47,NNE,26,0.0,2.0,95,0.00,,,0.37,,2013-03-08 14:02:00,
2013-03-08 09:11:00,25.0,24.0,30.47,NNE,26,0.0,2.0,95,0.00,,,0.37,,2013-03-08 14:11:00,
2013-03-08 09:22:00,27.0,26.0,30.47,NNE,25,0.0,1.0,95,0.00,,,0.37,,2013-03-08 14:22:00,
2013-03-08 09:32:00,30.0,28.0,30.48,East,88,0.0,3.0,92,0.01,,,0.38,,2013-03-08 14:32:00,
2013-03-08 09:42:00,30.0,28.0,30.48,East,88,0.0,3.0,92,0.01,,,0.38,,2013-03-08 14:42:00,
2013-03-08 09:52:00,32.0,28.0,30.48,East,89,1.0,2.0,86,0.01,,,0.38,,2013-03-08 14:52:00,
2013-03-08 10:02:00,34.0,28.0,30.48,South,170,1.0,4.0,80,0.01,,,0.38,,2013-03-08 15:02:00,
2013-03-08 10:11:00,35.0,29.0,30.48,SSE,159,1.0,4.0,77,0.01,,,0.38,,2013-03-08 15:11:00,
2013-03-08 10:22:00,35.0,29.0,30.48,SSE,159,1.0,4.0,77,0.01,,,0.38,,2013-03-08 15:22:00,
2013-03-08 10:32:00,36.0,29.0,30.48,SE,140,2.0,4.0,75,0.01,,,0.39,,2013-03-08 15:32:00,
2013-03-08 10:42:00,36.0,29.0,30.48,SE,140,2.0,4.0,75,0.01,,,0.39,,2013-03-08 15:42:00,
2013-03-08 10:53:00,37.0,28.0,30.48,SE,134,0.0,6.0,71,0.02,,,0.40,,2013-03-08 15:53:00,
2013-03-08 11:01:00,38.0,29.0,30.48,South,172,3.0,5.0,69,0.02,,,0.40,,2013-03-08 16:01:00,
2013-03-08 11:11:00,38.0,29.0,30.48,South,172,3.0,5.0,69,0.02,,,0.40,,2013-03-08 16:11:00,
2013-03-08 11:22:00,38.0,29.0,30.47,South,178,1.0,4.0,69,0.03,,,0.41,,2013-03-08 16:22:00,
2013-03-08 11:32:00,39.0,29.0,30.47,SW,228,1.0,6.0,67,0.02,,,0.41,,2013-03-08 16:32:00,
2013-03-08 11:42:00,39.0,29.0,30.47,SW,228,1.0,6.0,67,0.02,,,0.41,,2013-03-08 16:42:00,
2013-03-08 11:52:00,39.0,29.0,30.47,SSW,200,2.0,9.0,66,0.02,,,0.42,,2013-03-08 16:52:00,
2013-03-08 12:02:00,39.0,28.0,30.47,SSW,198,2.0,5.0,64,0.02,,,0.42,,2013-03-08 17:02:00,
2013-03-08 12:11:00,39.0,28.0,30.47,SSW,198,2.0,5.0,64,0.02,,,0.42,,2013-03-08 17:11:00,
2013-03-08 12:21:00,39.0,27.0,30.47,SSE,152,2.0,8.0,63,0.01,,,0.42,,2013-03-08 17:21:00,
2013-03-08 12:32:00,40.0,28.0,30.47,South,170,2.0,6.0,63,0.01,,,0.42,,2013-03-08 17:32:00,
2013-03-08 12:42:00,40.0,28.0,30.47,South,170,2.0,6.0,63,0.01,,,0.42,,2013-03-08 17:42:00,
2013-03-08 12:52:00,40.0,28.0,30.47,WSW,250,3.0,5.0,63,0.00,,,0.42,,2013-03-08 17:52:00,
2013-03-08 13:02:00,40.0,28.0,30.47,SW,227,3.0,6.0,62,0.00,,,0.42,,2013-03-08 18:02:00,
2013-03-08 13:11:00,40.0,28.0,30.47,SW,227,3.0,6.0,62,0.00,,,0.42,,2013-03-08 18:11:00,
2013-03-08 13:21:00,40.0,28.0,30.46,West,263,2.0,6.0,63,0.00,,,0.42,,2013-03-08 18:21:00,
2013-03-08 13:32:00,40.0,29.0,30.46,West,273,2.0,7.0,64,0.00,,,0.28,,2013-03-08 18:32:00,
2013-03-08 13:42:00,40.0,29.0,30.46,West,273,2.0,7.0,64,0.00,,,0.28,,2013-03-08 18:42:00,
2013-03-08 13:52:00,41.0,29.0,30.45,SSE,160,2.0,5.0,63,0.00,,,0.28,,2013-03-08 18:52:00,
2013-03-08 14:01:00,41.0,29.0,30.44,South,184,1.0,7.0,61,0.00,,,0.28,,2013-03-08 19:01:00,
2013-03-08 14:11:00,41.0,29.0,30.44,South,184,1.0,7.0,61,0.00,,,0.28,,2013-03-08 19:11:00,
2013-03-08 14:21:00,42.0,29.0,30.42,West,280,3.0,6.0,60,0.00,,,0.28,,2013-03-08 19:21:00,
2013-03-08 14:32:00,42.0,29.0,30.41,WSW,242,2.0,7.0,60,0.00,,,0.17,,2013-03-08 19:32:00,
2013-03-08 14:41:00,42.0,29.0,30.41,WSW,242,2.0,7.0,60,0.00,,,0.17,,2013-03-08 19:41:00,
2013-03-08 14:52:00,42.0,30.0,30.41,SSW,205,2.0,6.0,62,0.00,,,0.17,,2013-03-08 19:52:00,
2013-03-08 15:01:00,42.0,29.0,30.40,SSE,167,2.0,7.0,60,0.00,,,0.17,,2013-03-08 20:01:00,
2013-03-08 15:11:00,42.0,29.0,30.40,SSE,167,2.0,7.0,60,0.00,,,0.17,,2013-03-08 20:11:00,
2013-03-08 15:21:00,42.0,30.0,30.40,SSE,153,1.0,9.0,61,0.00,,,0.17,,2013-03-08 20:21:00,
2013-03-08 15:32:00,42.0,30.0,30.40,WSW,244,2.0,6.0,62,0.01,,,0.12,,2013-03-08 20:32:00,
2013-03-08 15:42:00,42.0,30.0,30.40,WSW,244,2.0,6.0,62,0.01,,,0.12,,2013-03-08 20:42:00,
2013-03-08 15:53:00,42.0,29.0,30.40,SSW,198,2.0,8.0,60,0.01,,,0.12,,2013-03-08 20:53:00,
2013-03-08 16:02:00,42.0,29.0,30.39,SE,134,3.0,7.0,60,0.01,,,0.12,,2013-03-08 21:02:00,
2013-03-08 16:11:00,42.0,29.0,30.39,SE,134,3.0,7.0,60,0.01,,,0.12,,2013-03-08 21:11:00,
2013-03-08 16:21:00,41.0,28.0,30.38,South,191,3.0,8.0,60,0.01,,,0.12,,2013-03-08 21:21:00,
2013-03-08 16:32:00,41.0,29.0,30.38,SSW,205,3.0,6.0,62,0.00,,,0.09,,2013-03-08 21:32:00,
2013-03-08 16:42:00,41.0,29.0,30.38,SSW,205,3.0,6.0,62,0.00,,,0.09,,2013-03-08 21:42:00,
2013-03-08 16:52:00,41.0,30.0,30.37,SE,138,1.0,7.0,65,0.00,,,0.09,,2013-03-08 21:52:00,
2013-03-08 17:01:00,40.0,29.0,30.37,SSW,193,3.0,7.0,64,0.00,,,0.09,,2013-03-08 22:01:00,
2013-03-08 17:11:00,40.0,29.0,30.37,SSW,193,3.0,7.0,64,0.00,,,0.09,,2013-03-08 22:11:00,
2013-03-08 17:22:00,40.0,30.0,30.37,South,185,3.0,7.0,66,0.00,,,0.09,,2013-03-08 22:22:00,
2013-03-08 17:32:00,40.0,29.0,30.37,SE,144,1.0,7.0,65,0.00,,,0.07,,2013-03-08 22:32:00,
2013-03-08 17:42:00,40.0,29.0,30.37,SE,144,1.0,7.0,65,0.00,,,0.07,,2013-03-08 22:42:00,
2013-03-08 17:52:00,40.0,30.0,30.37,SSE,161,1.0,5.0,66,0.00,,,0.07,,2013-03-08 22:52:00,
2013-03-08 18:01:00,40.0,30.0,30.36,SSE,165,2.0,8.0,67,0.00,,,0.07,,2013-03-08 23:01:00,
2013-03-08 18:11:00,40.0,30.0,30.36,SSE,165,2.0,8.0,67,0.00,,,0.07,,2013-03-08 23:11:00,
2013-03-08 18:21:00,39.0,29.0,30.37,SE,146,2.0,7.0,68,0.00,,,0.07,,2013-03-08 23:21:00,
2013-03-08 18:32:00,39.0,30.0,30.37,South,183,1.0,5.0,69,0.00,,,0.06,,2013-03-08 23:32:00,
2013-03-08 18:42:00,39.0,30.0,30.37,South,183,1.0,5.0,69,0.00,,,0.06,,2013-03-08 23:42:00,
2013-03-08 18:53:00,38.0,29.0,30.37,South,183,0.0,6.0,71,0.00,,,0.06,,2013-03-08 23:53:00,
2013-03-08 19:02:00,38.0,30.0,30.37,South,180,0.0,5.0,72,0.00,,,0.06,,2013-03-09 00:02:00,
2013-03-08 19:11:00,38.0,30.0,30.37,South,180,0.0,5.0,72,0.00,,,0.06,,2013-03-09 00:11:00,
2013-03-08 19:22:00,37.0,29.0,30.37,South,181,0.0,2.0,73,0.00,,,0.06,,2013-03-09 00:22:00,
2013-03-08 19:32:00,36.0,29.0,30.38,South,180,0.0,0.0,75,0.00,,,0.06,,2013-03-09 00:32:00,
2013-03-08 19:42:00,36.0,29.0,30.38,South,180,0.0,0.0,75,0.00,,,0.06,,2013-03-09 00:42:00,
2013-03-08 19:52:00,35.0,29.0,30.38,South,181,0.0,1.0,77,0.00,,,0.06,,2013-03-09 00:52:00,
2013-03-08 20:01:00,35.0,29.0,30.38,South,181,0.0,1.0,79,0.00,,,0.06,,2013-03-09 01:01:00,
2013-03-08 20:12:00,34.0,28.0,30.38,SE,140,0.0,3.0,80,0.00,,,0.06,,2013-03-09 01:12:00,
2013-03-08 20:21:00,34.0,28.0,30.38,SE,140,0.0,3.0,80,0.00,,,0.06,,2013-03-09 01:21:00,
2013-03-08 20:32:00,34.0,29.0,30.38,SE,141,1.0,4.0,82,0.00,,,0.06,,2013-03-09 01:32:00,
2013-03-08 20:42:00,34.0,29.0,30.38,SE,141,1.0,4.0,82,0.00,,,0.06,,2013-03-09 01:42:00,
2013-03-08 20:52:00,34.0,28.0,30.37,South,182,3.0,6.0,80,0.00,,,0.06,,2013-03-09 01:52:00,
2013-03-08 21:01:00,35.0,29.0,30.37,South,173,1.0,8.0,79,0.00,,,0.06,,2013-03-09 02:01:00,
2013-03-08 21:11:00,35.0,29.0,30.37,South,173,1.0,8.0,79,0.00,,,0.06,,2013-03-09 02:11:00,
2013-03-08 21:21:00,35.0,29.0,30.37,SSE,152,1.0,6.0,79,0.00,,,0.06,,2013-03-09 02:21:00,
2013-03-08 21:31:00,34.0,28.0,30.37,SSE,164,0.0,4.0,79,0.00,,,0.06,,2013-03-09 02:31:00,
2013-03-08 21:41:00,34.0,28.0,30.38,SSE,157,1.0,3.0,79,0.00,,,0.06,,2013-03-09 02:41:00,
2013-03-08 21:51:00,34.0,28.0,30.38,SSE,157,1.0,3.0,79,0.00,,,0.06,,2013-03-09 02:51:00,
2013-03-08 22:01:00,34.0,28.0,30.37,SSE,156,0.0,1.0,80,0.00,,,0.06,,2013-03-09 03:01:00,
2013-03-08 22:11:00,34.0,28.0,30.37,SSE,156,0.0,1.0,80,0.00,,,0.06,,2013-03-09 03:11:00,
2013-03-08 22:21:00,34.0,29.0,30.37,SE,129,0.0,2.0,81,0.00,,,0.06,,2013-03-09 03:21:00,
2013-03-08 22:31:00,33.0,28.0,30.37,South,186,1.0,4.0,81,0.00,,,0.06,,2013-03-09 03:31:00,
2013-03-08 22:41:00,33.0,28.0,30.37,South,186,1.0,4.0,81,0.00,,,0.06,,2013-03-09 03:41:00,
2013-03-08 22:52:00,33.0,28.0,30.36,SSE,154,1.0,5.0,81,0.00,,,0.06,,2013-03-09 03:52:00,
2013-03-08 23:01:00,33.0,28.0,30.36,SSE,154,1.0,4.0,81,0.00,,,0.06,,2013-03-09 04:01:00,
2013-03-08 23:11:00,33.0,28.0,30.36,SSE,154,1.0,4.0,81,0.00,,,0.06,,2013-03-09 04:11:00,
2013-03-08 23:22:00,33.0,28.0,30.35,SSE,167,2.0,5.0,81,0.00,,,0.06,,2013-03-09 04:22:00,
2013-03-08 23:32:00,34.0,28.0,30.35,SSE,165,2.0,6.0,80,0.00,,,0.06,,2013-03-09 04:32:00,
2013-03-08 23:41:00,34.0,28.0,30.35,SSE,165,2.0,6.0,80,0.00,,,0.06,,2013-03-09 04:41:00,
2013-03-08 23:52:00,34.0,28.0,30.35,SSE,162,3.0,6.0,80,0.00,,,0.06,,2013-03-09 04:52:00,